HAZ605 ZSHC-RCTP

Flight info

Callsign HAZ605
Flight time 1h 15m
Altitude 34000
Route UGAGO5E UGAGO A470 BZ R596 SULEM/N0493F340 R596 BERBA B591 BAKER BAKER1A
Aircraft A359/H-SDE2E3GHIJ3J4J5LM1ORWXY/LB1D1

Departure

Time 2026-05-08 19:12
Airport Hangzhou Xiaoshan International Airport (ZSHC)

Arrival

Time 2026-05-08 20:27
Airport Taiwan Taoyuan International Airport (RCTP)
Time Latitude Longitude Altitude Speed Heading
2026-05-08 18:54 30.24150 120.42696 38 ft 0 kts 163°
2026-05-08 19:04 30.24156 120.42694 37 ft 2 kts 163°
2026-05-08 19:05 30.24172 120.42689 37 ft 2 kts 166°
2026-05-08 19:05 30.24193 120.42684 36 ft 2 kts 169°
2026-05-08 19:05 30.24209 120.42681 36 ft 2 kts 174°
2026-05-08 19:05 30.24220 120.42680 36 ft 2 kts 179°
2026-05-08 19:06 30.24236 120.42681 36 ft 2 kts 191°
2026-05-08 19:06 30.24252 120.42687 36 ft 2 kts 219°
2026-05-08 19:06 30.24261 120.42699 36 ft 1 kts 243°
2026-05-08 19:06 30.24262 120.42701 36 ft 0 kts 243°
2026-05-08 19:07 30.24260 120.42698 37 ft 3 kts 242°
2026-05-08 19:07 30.24245 120.42664 38 ft 11 kts 243°
2026-05-08 19:08 30.24191 120.42510 38 ft 14 kts 280°
2026-05-08 19:08 30.24227 120.42463 38 ft 13 kts 322°
2026-05-08 19:08 30.24299 120.42390 36 ft 15 kts 285°
2026-05-08 19:08 30.24260 120.42254 38 ft 21 kts 243°
2026-05-08 19:09 30.24184 120.42085 38 ft 26 kts 242°
2026-05-08 19:09 30.24099 120.41892 38 ft 28 kts 243°
2026-05-08 19:09 30.24010 120.41692 38 ft 27 kts 243°
2026-05-08 19:09 30.23923 120.41495 38 ft 28 kts 243°
2026-05-08 19:10 30.23835 120.41298 38 ft 27 kts 243°
2026-05-08 19:10 30.23747 120.41099 39 ft 28 kts 243°
2026-05-08 19:10 30.23714 120.40919 39 ft 22 kts 310°
2026-05-08 19:10 30.23822 120.40863 40 ft 10 kts 15°
2026-05-08 19:11 30.23854 120.40908 40 ft 7 kts 62°
2026-05-08 19:11 30.23912 120.41038 40 ft 46 kts 63°
2026-05-08 19:11 30.24164 120.41609 38 ft 112 kts 63°
2026-05-08 19:11 30.24611 120.42615 44 ft 167 kts 63°
2026-05-08 19:12 30.25155 120.43859 636 ft 171 kts 64°
2026-05-08 19:12 30.25687 120.45082 1393 ft 172 kts 65°
2026-05-08 19:12 30.26228 120.46413 1752 ft 195 kts 73°
2026-05-08 19:12 30.26329 120.48013 2089 ft 214 kts 104°
2026-05-08 19:13 30.25493 120.49492 2441 ft 234 kts 144°
2026-05-08 19:13 30.23922 120.50022 3149 ft 245 kts 181°
2026-05-08 19:13 30.22318 120.49313 3892 ft 258 kts 216°
2026-05-08 19:13 30.21227 120.47625 4627 ft 268 kts 240°
2026-05-08 19:14 30.20343 120.45698 5364 ft 273 kts 238°
2026-05-08 19:14 30.19327 120.43826 6155 ft 276 kts 234°
2026-05-08 19:14 30.18199 120.42016 7004 ft 279 kts 231°
2026-05-08 19:14 30.17007 120.40241 7844 ft 281 kts 231°
2026-05-08 19:15 30.15794 120.38507 8749 ft 281 kts 230°
2026-05-08 19:15 30.14560 120.36783 9635 ft 283 kts 231°
2026-05-08 19:15 30.13277 120.35010 10438 ft 288 kts 231°
2026-05-08 19:15 30.11946 120.33183 10841 ft 307 kts 230°
2026-05-08 19:16 30.10519 120.31232 11185 ft 327 kts 230°
2026-05-08 19:16 30.09009 120.29173 11541 ft 345 kts 230°
2026-05-08 19:16 30.07427 120.27023 12049 ft 356 kts 230°
2026-05-08 19:16 30.05810 120.24828 12691 ft 362 kts 230°
2026-05-08 19:17 30.04190 120.22629 13348 ft 367 kts 230°
2026-05-08 19:17 30.02522 120.20366 14017 ft 372 kts 230°
2026-05-08 19:17 30.00838 120.18084 14673 ft 374 kts 231°
2026-05-08 19:17 29.99171 120.15826 15436 ft 372 kts 231°
2026-05-08 19:18 29.97480 120.13536 16232 ft 370 kts 232°
2026-05-08 19:18 29.95804 120.11266 16870 ft 374 kts 232°
2026-05-08 19:18 29.94117 120.08983 17564 ft 375 kts 232°
2026-05-08 19:18 29.92427 120.06700 18344 ft 374 kts 233°
2026-05-08 19:19 29.90759 120.04446 18936 ft 375 kts 233°
2026-05-08 19:19 29.89064 120.02152 19493 ft 378 kts 233°
2026-05-08 19:19 29.87352 119.99833 20040 ft 381 kts 233°
2026-05-08 19:19 29.85628 119.97500 20636 ft 383 kts 233°
2026-05-08 19:20 29.83898 119.95161 21190 ft 384 kts 233°
2026-05-08 19:20 29.82777 119.93582 21533 ft 386 kts 234°
2026-05-08 19:20 29.80525 119.90343 22178 ft 390 kts 235°
2026-05-08 19:20 29.78823 119.87895 22727 ft 392 kts 234°
2026-05-08 19:21 29.77114 119.85452 23357 ft 391 kts 235°
2026-05-08 19:21 29.75413 119.83002 23954 ft 393 kts 236°
2026-05-08 19:21 29.73711 119.80578 24410 ft 396 kts 235°
2026-05-08 19:21 29.71966 119.78110 24903 ft 398 kts 235°
2026-05-08 19:22 29.70214 119.75635 25411 ft 400 kts 236°
2026-05-08 19:22 29.68452 119.73138 25893 ft 403 kts 236°
2026-05-08 19:22 29.66662 119.70642 26385 ft 407 kts 233°
2026-05-08 19:22 29.64605 119.68355 26877 ft 416 kts 224°
2026-05-08 19:23 29.62134 119.66543 27353 ft 428 kts 213°
2026-05-08 19:23 29.59306 119.65335 27792 ft 443 kts 201°
2026-05-08 19:23 29.56247 119.64818 28221 ft 456 kts 191°
2026-05-08 19:23 29.53063 119.64629 28667 ft 461 kts 189°
2026-05-08 19:24 29.49849 119.64485 29115 ft 464 kts 190°
2026-05-08 19:24 29.46612 119.64326 29534 ft 467 kts 190°
2026-05-08 19:24 29.43356 119.64150 29959 ft 470 kts 190°
2026-05-08 19:24 29.40085 119.63961 30361 ft 472 kts 191°
2026-05-08 19:25 29.36799 119.63761 30669 ft 475 kts 191°
2026-05-08 19:25 29.33479 119.63553 30957 ft 478 kts 191°
2026-05-08 19:25 29.30186 119.63346 31237 ft 482 kts 191°
2026-05-08 19:25 29.26860 119.63138 31538 ft 485 kts 191°
2026-05-08 19:26 29.23482 119.62930 31837 ft 487 kts 191°
2026-05-08 19:26 29.20089 119.62723 32117 ft 490 kts 192°
2026-05-08 19:26 29.16675 119.62519 32427 ft 493 kts 192°
2026-05-08 19:26 29.13247 119.62315 32707 ft 495 kts 192°
2026-05-08 19:27 29.09801 119.62104 32978 ft 497 kts 192°
2026-05-08 19:27 29.06338 119.61897 33160 ft 500 kts 192°
2026-05-08 19:27 29.02850 119.61684 33394 ft 502 kts 193°
2026-05-08 19:27 28.99412 119.61468 33767 ft 501 kts 193°
2026-05-08 19:28 28.95932 119.61248 34104 ft 501 kts 193°
2026-05-08 19:28 28.88968 119.60810 34187 ft 501 kts 193°
2026-05-08 19:29 28.82007 119.60380 34171 ft 501 kts 193°
2026-05-08 19:29 28.75026 119.59945 34189 ft 503 kts 193°
2026-05-08 19:30 28.68085 119.59513 34181 ft 503 kts 193°
2026-05-08 19:30 28.61099 119.59082 34181 ft 503 kts 193°
2026-05-08 19:31 28.54099 119.58648 34180 ft 505 kts 193°
2026-05-08 19:31 28.47077 119.58213 34180 ft 506 kts 193°
2026-05-08 19:32 28.40038 119.57802 34178 ft 507 kts 193°
2026-05-08 19:32 28.33039 119.57423 34155 ft 507 kts 193°
2026-05-08 19:33 28.25984 119.57040 34178 ft 508 kts 193°
2026-05-08 19:33 28.18864 119.57050 34178 ft 523 kts 182°
2026-05-08 19:33 28.15254 119.57887 34174 ft 538 kts 172°
2026-05-08 19:34 28.11738 119.59483 34175 ft 553 kts 160°
2026-05-08 19:34 28.08506 119.61837 34180 ft 567 kts 148°
2026-05-08 19:34 28.05644 119.64969 34136 ft 579 kts 134°
2026-05-08 19:34 28.03356 119.68753 34174 ft 587 kts 121°
2026-05-08 19:35 28.01769 119.73020 34186 ft 591 kts 107°
2026-05-08 19:35 28.00966 119.77568 34174 ft 590 kts 94°
2026-05-08 19:35 28.00721 119.82203 34163 ft 591 kts 95°
2026-05-08 19:35 27.99940 119.86764 34196 ft 591 kts 107°
2026-05-08 19:36 27.98727 119.91195 34175 ft 590 kts 110°
2026-05-08 19:36 27.96002 119.99878 34185 ft 590 kts 112°
2026-05-08 19:37 27.93097 120.08552 34183 ft 590 kts 112°
2026-05-08 19:37 27.90196 120.17229 34181 ft 589 kts 112°
2026-05-08 19:38 27.87327 120.25885 34183 ft 588 kts 112°
2026-05-08 19:38 27.84467 120.34537 34181 ft 588 kts 112°
2026-05-08 19:39 27.81625 120.43125 34177 ft 588 kts 112°
2026-05-08 19:39 27.78752 120.51772 34176 ft 587 kts 112°
2026-05-08 19:40 27.75877 120.60398 34171 ft 587 kts 111°
2026-05-08 19:40 27.73901 120.69287 34171 ft 589 kts 102°
2026-05-08 19:41 27.72313 120.78356 34177 ft 589 kts 101°
2026-05-08 19:41 27.70788 120.87433 34173 ft 589 kts 101°
2026-05-08 19:42 27.69244 120.96506 34165 ft 589 kts 101°
2026-05-08 19:42 27.67675 121.05575 34166 ft 588 kts 101°
2026-05-08 19:43 27.66106 121.14569 34161 ft 588 kts 101°
2026-05-08 19:43 27.64521 121.23621 34167 ft 588 kts 101°
2026-05-08 19:44 27.62934 121.32660 34162 ft 587 kts 101°
2026-05-08 19:44 27.61345 121.41674 34154 ft 586 kts 101°
2026-05-08 19:45 27.59763 121.50612 34158 ft 586 kts 101°
2026-05-08 19:45 27.58167 121.59614 34149 ft 584 kts 101°
2026-05-08 19:46 27.56625 121.68604 34154 ft 585 kts 101°
2026-05-08 19:46 27.54333 121.82125 34146 ft 586 kts 101°
2026-05-08 19:47 27.52800 121.91067 34146 ft 585 kts 101°
2026-05-08 19:47 27.51247 122.00064 34146 ft 585 kts 101°
2026-05-08 19:48 27.49689 122.09049 34141 ft 584 kts 101°
2026-05-08 19:48 27.48129 122.18016 34143 ft 582 kts 101°
2026-05-08 19:49 27.46566 122.26962 34137 ft 582 kts 101°
2026-05-08 19:49 27.45007 122.35851 34125 ft 582 kts 102°
2026-05-08 19:50 27.43956 122.44849 34134 ft 580 kts 91°
2026-05-08 19:50 27.43822 122.53915 34137 ft 579 kts 89°
2026-05-08 19:51 27.43830 122.62975 34129 ft 579 kts 89°
2026-05-08 19:51 27.43837 122.71972 34138 ft 578 kts 89°
2026-05-08 19:52 27.43402 122.76469 34141 ft 578 kts 103°
2026-05-08 19:52 27.42135 122.80733 34143 ft 573 kts 118°
2026-05-08 19:52 27.40069 122.84522 34138 ft 565 kts 133°
2026-05-08 19:52 27.37338 122.87617 34136 ft 552 kts 148°
2026-05-08 19:53 27.34122 122.89852 34136 ft 537 kts 163°
2026-05-08 19:53 27.30648 122.91261 34133 ft 530 kts 169°
2026-05-08 19:53 27.23687 122.93837 34126 ft 530 kts 170°
2026-05-08 19:54 27.16652 122.96329 34131 ft 526 kts 174°
2026-05-08 19:54 27.09545 122.97153 34127 ft 504 kts 192°
2026-05-08 19:55 27.06122 122.96612 34127 ft 491 kts 201°
2026-05-08 19:55 27.02910 122.95462 34131 ft 479 kts 211°
2026-05-08 19:55 26.97311 122.91785 34131 ft 466 kts 222°
2026-05-08 19:56 26.92034 122.87572 34113 ft 465 kts 223°
2026-05-08 19:56 26.86797 122.83336 34115 ft 464 kts 223°
2026-05-08 19:57 26.81539 122.79134 34127 ft 464 kts 223°
2026-05-08 19:57 26.76296 122.74979 34108 ft 465 kts 223°
2026-05-08 19:58 26.70997 122.70790 34122 ft 467 kts 222°
2026-05-08 19:58 26.65683 122.66595 34115 ft 468 kts 222°
2026-05-08 19:59 26.60369 122.62400 34109 ft 467 kts 222°
2026-05-08 19:59 26.55055 122.58210 34097 ft 468 kts 222°
2026-05-08 20:00 26.49759 122.54036 34111 ft 470 kts 222°
2026-05-08 20:00 26.44409 122.49828 34113 ft 470 kts 222°
2026-05-08 20:01 26.39061 122.45626 34105 ft 470 kts 222°
2026-05-08 20:01 26.33714 122.41430 34079 ft 470 kts 222°
2026-05-08 20:02 26.28394 122.37258 34102 ft 471 kts 222°
2026-05-08 20:02 26.23037 122.33063 34100 ft 471 kts 222°
2026-05-08 20:03 26.20355 122.30965 33943 ft 470 kts 222°
2026-05-08 20:03 26.17676 122.28870 33693 ft 472 kts 222°
2026-05-08 20:03 26.14987 122.26766 33433 ft 474 kts 222°
2026-05-08 20:03 26.12285 122.24659 33161 ft 475 kts 221°
2026-05-08 20:04 26.09600 122.22590 32914 ft 477 kts 221°
2026-05-08 20:04 26.06860 122.20493 32670 ft 478 kts 221°
2026-05-08 20:04 26.04117 122.18401 32418 ft 479 kts 221°
2026-05-08 20:04 26.01366 122.16303 32183 ft 480 kts 220°
2026-05-08 20:05 25.98607 122.14198 31929 ft 481 kts 220°
2026-05-08 20:05 25.95848 122.12092 31688 ft 481 kts 220°
2026-05-08 20:05 25.93092 122.09988 31452 ft 481 kts 220°
2026-05-08 20:05 25.90338 122.07888 31195 ft 479 kts 220°
2026-05-08 20:06 25.87591 122.05793 30964 ft 479 kts 220°
2026-05-08 20:06 25.84883 122.03728 30743 ft 478 kts 220°
2026-05-08 20:06 25.82146 122.01642 30526 ft 477 kts 220°
2026-05-08 20:06 25.79417 121.99563 30282 ft 475 kts 220°
2026-05-08 20:07 25.76688 121.97486 30039 ft 474 kts 220°
2026-05-08 20:07 25.73976 121.95423 29757 ft 472 kts 220°
2026-05-08 20:07 25.71290 121.93385 29264 ft 464 kts 220°
2026-05-08 20:07 25.68652 121.91362 28666 ft 459 kts 220°
2026-05-08 20:08 25.66088 121.89300 28099 ft 451 kts 224°
2026-05-08 20:08 25.63936 121.86905 27552 ft 438 kts 236°
2026-05-08 20:08 25.62293 121.84113 26998 ft 429 kts 244°
2026-05-08 20:08 25.60837 121.81259 26457 ft 425 kts 244°
2026-05-08 20:09 25.59390 121.78404 25949 ft 421 kts 244°
2026-05-08 20:09 25.57957 121.75592 25400 ft 418 kts 244°
2026-05-08 20:09 25.56530 121.72803 24858 ft 414 kts 244°
2026-05-08 20:09 25.55114 121.70041 24336 ft 411 kts 244°
2026-05-08 20:10 25.53704 121.67295 23814 ft 408 kts 243°
2026-05-08 20:10 25.52305 121.64573 23214 ft 405 kts 243°
2026-05-08 20:10 25.50934 121.61907 22669 ft 401 kts 243°
2026-05-08 20:10 25.49558 121.59241 22088 ft 397 kts 243°
2026-05-08 20:11 25.48024 121.56713 21543 ft 396 kts 235°
2026-05-08 20:11 25.46254 121.54382 20977 ft 394 kts 233°
2026-05-08 20:11 25.44462 121.52101 20405 ft 392 kts 232°
2026-05-08 20:11 25.42682 121.49832 19847 ft 389 kts 233°
2026-05-08 20:12 25.40914 121.47574 19278 ft 387 kts 233°
2026-05-08 20:12 25.39159 121.45331 18717 ft 385 kts 232°
2026-05-08 20:12 25.37437 121.43130 18131 ft 383 kts 232°
2026-05-08 20:12 25.35702 121.40914 17521 ft 380 kts 232°
2026-05-08 20:13 25.33984 121.38722 16975 ft 376 kts 232°
2026-05-08 20:13 25.32293 121.36564 16395 ft 373 kts 232°
2026-05-08 20:13 25.30589 121.34391 15840 ft 369 kts 232°
2026-05-08 20:13 25.28914 121.32253 15278 ft 366 kts 232°
2026-05-08 20:14 25.27250 121.30132 14718 ft 364 kts 232°
2026-05-08 20:14 25.25598 121.28026 14166 ft 362 kts 231°
2026-05-08 20:14 25.23978 121.25963 13597 ft 360 kts 231°
2026-05-08 20:14 25.22345 121.23885 13015 ft 356 kts 231°
2026-05-08 20:15 25.20731 121.21826 12371 ft 355 kts 232°
2026-05-08 20:15 25.19115 121.19773 11737 ft 353 kts 231°
2026-05-08 20:15 25.17517 121.17748 11331 ft 344 kts 232°
2026-05-08 20:15 25.15984 121.15801 11195 ft 328 kts 232°
2026-05-08 20:16 25.14524 121.13951 11068 ft 312 kts 231°
2026-05-08 20:16 25.13131 121.12188 10943 ft 298 kts 232°
2026-05-08 20:16 25.11803 121.10503 10833 ft 284 kts 232°
2026-05-08 20:16 25.10553 121.08915 10685 ft 272 kts 231°
2026-05-08 20:17 25.09337 121.07375 10541 ft 262 kts 231°
2026-05-08 20:17 25.08145 121.05854 10098 ft 263 kts 232°
2026-05-08 20:17 25.06959 121.04344 9851 ft 257 kts 231°
2026-05-08 20:17 25.05794 121.02860 9483 ft 255 kts 231°
2026-05-08 20:18 25.04638 121.01390 9152 ft 252 kts 231°
2026-05-08 20:18 25.03494 120.99939 8848 ft 248 kts 231°
2026-05-08 20:18 25.02384 120.98531 8606 ft 242 kts 230°
2026-05-08 20:18 25.01288 120.97142 8329 ft 236 kts 231°
2026-05-08 20:19 25.00228 120.95797 7982 ft 235 kts 230°
2026-05-08 20:19 24.99138 120.94413 7573 ft 241 kts 230°
2026-05-08 20:19 24.97981 120.93075 7187 ft 243 kts 219°
2026-05-08 20:19 24.96434 120.92355 6820 ft 247 kts 191°
2026-05-08 20:20 24.94722 120.92590 6441 ft 255 kts 162°
2026-05-08 20:20 24.93282 120.93747 6044 ft 263 kts 133°
2026-05-08 20:20 24.92436 120.95544 5659 ft 267 kts 110°
2026-05-08 20:20 24.91981 120.97536 5273 ft 269 kts 105°
2026-05-08 20:21 24.91616 120.99533 4889 ft 269 kts 102°
2026-05-08 20:21 24.91819 121.01565 4492 ft 271 kts 69°
2026-05-08 20:21 24.92802 121.03314 4137 ft 268 kts 52°
2026-05-08 20:21 24.94039 121.04804 3934 ft 259 kts 49°
2026-05-08 20:22 24.95213 121.06262 3679 ft 250 kts 52°
2026-05-08 20:22 24.96321 121.07712 3371 ft 243 kts 53°
2026-05-08 20:22 24.97397 121.09081 3038 ft 228 kts 51°
2026-05-08 20:22 24.98407 121.10354 2745 ft 213 kts 51°
2026-05-08 20:23 24.99344 121.11540 2483 ft 197 kts 52°
2026-05-08 20:23 25.00186 121.12609 2244 ft 177 kts 51°
2026-05-08 20:23 25.00943 121.13570 2006 ft 155 kts 51°
2026-05-08 20:23 25.01611 121.14416 1802 ft 138 kts 51°
2026-05-08 20:24 25.02210 121.15176 1634 ft 125 kts 50°
2026-05-08 20:24 25.02759 121.15871 1465 ft 118 kts 50°
2026-05-08 20:24 25.03299 121.16553 1326 ft 118 kts 50°
2026-05-08 20:24 25.03835 121.17231 1168 ft 117 kts 49°
2026-05-08 20:25 25.04371 121.17906 1027 ft 118 kts 49°
2026-05-08 20:25 25.04924 121.18591 850 ft 120 kts 48°
2026-05-08 20:25 25.05488 121.19281 722 ft 124 kts 49°
2026-05-08 20:25 25.06030 121.20006 565 ft 123 kts 48°
2026-05-08 20:26 25.06579 121.20699 369 ft 116 kts 46°
2026-05-08 20:26 25.07107 121.21341 227 ft 112 kts 47°
2026-05-08 20:26 25.07608 121.22007 118 ft 113 kts 49°
2026-05-08 20:26 25.08054 121.22576 105 ft 58 kts 49°
2026-05-08 20:27 25.08158 121.22772 105 ft 25 kts 69°
2026-05-08 20:27 25.08191 121.22933 106 ft 19 kts 78°
2026-05-08 20:27 25.08210 121.23055 104 ft 14 kts 85°
2026-05-08 20:27 25.08164 121.23144 105 ft 14 kts 158°
2026-05-08 20:28 25.08100 121.23120 106 ft 9 kts 200°
2026-05-08 20:28 25.08043 121.23134 106 ft 9 kts 147°
2026-05-08 20:28 25.08001 121.23171 105 ft 0 kts 138°